Location: Staplehurst
(51.1500°N, 0.5500°E)
Time: 14:40:55
(UTC+00:00)

Daily predictions for brighter satellites

Satellite Brightness Start Highest point End
(mag) Time Altitude Azimuth Time Altitude Azimuth Time Altitude Azimuth
CZ-2C R/B 3.3 19:33:32 10° N 19:38:40 62° WNW 19:43:50 10° SSW
Cosmos 1634 Rocket 4.1 19:32:35 10° S 19:38:44 62° E 19:44:52 10° NNE
MOS 1 4.3 19:35:54 10° SSE 19:41:30 71° ENE 19:47:10 10° NNW
Cosmos 405 3.1 19:38:34 10° SSW 19:42:03 79° WNW 19:45:33 10° N
SAR-Lupe-4 4.0 19:38:49 10° N 19:42:24 67° WNW 19:45:57 10° SSW
ERS-2 2.4 19:40:08 10° NNE 19:43:48 75° WNW 19:47:25 10° SSW
Cosmos 192 4.5 19:39:03 10° NNW 19:44:01 65° ENE 19:48:56 10° SE
Cosmos 1076 Rocket 3.9 19:39:57 10° N 19:44:11 48° ENE 19:48:22 10° SSE
ARIANE 5 R/B 4.4 19:41:50 10° E 19:44:43 17° ENE 19:47:36 10° NNE
NOSS 7 (E) 4.2 19:41:23 10° SW 19:45:02 79° SE 19:48:07 10° NE
ATLAS 2AS CENTAUR R/B 3.2 19:37:18 10° SW 19:45:15 87° NW 19:53:01 10° NE
SL-16 R/B 3.2 19:46:37 10° NNW 19:51:47 33° NE 19:56:54 10° ESE
Cosmos 1980 3.8 19:46:09 10° NNW 19:51:51 74° ENE 19:57:32 10° SE
IGS 5A 4.2 19:48:07 10° SE 19:51:54 35° ENE 19:55:42 10° N
IRS-1A Rocket 4.3 19:46:22 10° SSE 19:51:59 85° ENE 19:57:45 10° NNW
CZ-4 R/B 4.5 19:52:29 10° WSW 19:54:53 15° W 19:57:18 10° NW
Cosmos 2292 Rocket 4.5 19:48:26 10° N 19:55:19 62° ENE 20:00:26 10° SSE
Cosmos 2058 Rocket 3.3 19:51:53 10° SSW 19:56:14 75° WNW 20:00:37 10° N
Cosmos 389 Rocket 2.9 19:53:44 10° SSE 19:57:03 40° E 20:00:27 10° NNE
SL-4 R/B 3.6 19:55:02 10° S 19:58:01 18° SE 20:01:08 10° E
SME Rocket 3.9 19:56:24 10° N 20:00:10 56° WNW 20:04:53 10° SSW
NOSS 0 Rocket 4.2 19:54:44 10° NW 20:00:57 74° WSW 20:07:10 10° SSE
Cosmos 2251 Rocket 3.5 19:57:21 10° SSW 20:02:43 80° ESE 20:08:04 10° NNE
Ariane Rocket 3.1 19:58:00 10° SSE 20:03:03 83° WSW 20:08:09 10° NNW
Cosmos 1455 2.8 20:01:10 10° SSW 20:04:52 59° WNW 20:08:34 10° N
Cosmos 1812 Rocket 4.0 20:01:29 10° SSE 20:05:41 44° E 20:09:57 10° NNE
Cosmos 2219 Rocket 3.7 20:03:00 10° NW 20:08:06 35° WSW 20:13:11 10° S
COSMOS 2428 3.9 20:02:45 10° NW 20:08:06 41° WSW 20:13:25 10° S
Meteor 2-1 Rocket 4.4 20:02:58 10° S 20:08:50 86° ESE 20:14:50 10° NNE
SPOT 1/Viking Rocket 4.2 20:04:57 12° SE 20:09:30 40° ENE 20:14:22 10° N
Cosmos 614 Rocket 3.9 20:04:49 10° SSW 20:09:54 68° ESE 20:14:59 10° NNE
ATLAS 5 CENTAUR R/B 4.0 20:06:31 10° WNW 20:10:06 24° NNW 20:14:09 10° NE
BREEZE-M DEB (TANK) 4.0 20:06:49 10° WSW 20:10:08 67° SSE 20:19:24 10° E
FALCON 9 DEB 4.4 20:09:19 10° S 20:11:22 17° SE 20:11:42 16° SE
FALCON 9 DEB 3.0 20:09:16 10° WSW 20:12:41 73° SSE 20:16:08 10° ENE
CZ-4C R/B 3.9 20:08:19 10° W 20:13:23 37° NNW 20:19:29 10° NE
Orbus 7S? 3.3 20:10:40 10° SW 20:13:36 77° SE 20:19:21 10° ENE
Cosmos 1655 Rocket 4.1 20:08:59 10° N 20:15:13 60° ENE 20:21:20 10° SSE
Cosmos 2344 3.5 20:08:44 10° SW 20:16:09 79° SE 20:24:17 10° NE
ATLAS 3B R/B 3.7 20:09:34 10° NW 20:16:11 46° WSW 20:23:04 10° S
RESURS DK-1 3.0 20:12:32 10° SW 20:16:38 60° NW 20:20:45 10° NNE
SPOT 3 Rocket 3.6 20:11:49 10° SSE 20:16:59 72° ENE 20:22:10 10° NNW
Meteor 2-3 Rocket 3.9 20:14:45 10° N 20:20:28 58° ENE 20:25:24 13° SSE
Terra 3.4 20:20:42 13° E 20:23:34 21° ENE 20:27:04 10° N
FALCON 9 DEB 4.1 20:21:19 10° SSW 20:23:42 21° SE 20:23:54 21° SE
USA 215 3.3 20:18:58 13° ESE 20:24:57 81° NNE 20:31:31 10° WNW
Cosmos 1809 Rocket 4.5 20:20:22 10° N 20:26:30 90° W 20:32:37 10° S
Resurs 01 Rocket 1.6 20:22:50 10° SSE 20:27:17 89° WSW 20:31:47 10° NNW
SPOT 5 4.0 20:25:51 16° ESE 20:28:41 29° ENE 20:32:50 10° N
Cosmos 405 Rocket 3.8 20:25:28 10° NNW 20:29:20 46° W 20:33:05 10° S
Resurs 1-3 4.4 20:27:09 10° S 20:31:26 51° W 20:35:44 10° NNW
MetOp-B 4.1 20:30:18 13° SSE 20:35:03 78° ENE 20:40:26 10° NNW
ERS-1 Rocket 3.8 20:34:04 18° ESE 20:37:08 36° ENE 20:41:43 10° N
Cosmos 2237 Rocket 2.7 20:34:21 10° NW 20:39:53 58° WSW 20:44:53 13° S
Meteor 2-14 Rocket 4.5 20:35:58 10° NNW 20:42:04 84° W 20:48:03 10° S
OBJECT-B 3.6 20:41:44 10° SW 20:43:50 16° W 20:45:58 10° NW
FALCON 9 DEB 4.4 20:41:34 10° SSW 20:43:01 20° S 20:43:01 20° S
Cosmos 407 Rocket 3.4 20:40:22 10° SSW 20:45:29 75° ESE 20:50:41 10° NNE
Cosmos 2263 Rocket 4.1 20:51:48 11° E 20:51:48 11° E 20:53:01 10° ENE
Lacrosse 5 rocket 2.7 20:47:55 10° WNW 20:51:54 39° N 20:56:01 10° ENE
Cosmos 2084 Rocket 3.5 20:49:36 10° SSW 20:53:23 45° SE 20:57:18 10° NE
Cosmos 1023 Rocket 4.3 20:48:39 10° SSW 20:53:43 79° ESE 20:58:50 10° NNE
Landsat 7 4.1 20:51:00 15° S 20:54:59 68° WSW 20:59:45 10° NNW
Cosmos 2279 Rocket 4.4 20:49:01 10° SSW 20:55:08 64° WNW 21:01:19 10° N
Cosmos 2082 4.2 20:53:32 19° SSE 20:56:57 37° ESE 21:02:05 10° NE
Cosmos 1869 3.7 20:55:43 30° SE 20:57:10 43° E 21:00:56 10° NNE
Cosmos 2227 Rocket 2.1 20:51:47 10° SSW 20:57:23 65° ESE 21:03:00 10° NE
Cosmos 1140 Rocket 3.4 20:56:22 10° SSW 21:01:30 87° ESE 21:06:40 10° NNE
Cosmos 1954 Rocket 4.1 20:58:20 15° S 21:02:22 51° ESE 21:07:23 10° NNE
Cosmos 1818 4.5 20:57:12 10° WSW 21:02:32 52° NW 21:07:54 10° NE
Cosmos 2297 Rocket 2.1 20:58:34 10° SSW 21:04:13 88° ESE 21:09:56 10° NNE
Cosmos-2242 3.0 21:01:02 13° S 21:04:54 86° W 21:09:15 10° N
Cosmos 482 Debris 3.9 21:04:47 10° W 21:06:19 38° WNW 21:06:19 38° WNW
Genesis I 4.3 21:03:52 10° NW 21:07:36 38° WSW 21:09:24 24° S
Cosmos 2151 4.0 21:04:15 10° NNW 21:08:22 44° W 21:11:50 14° SSW
Cosmos 1633 4.1 21:06:03 10° NNW 21:09:19 33° W 21:12:01 13° SSW
Cosmos 2219 3.1 21:06:14 10° SSW 21:11:51 89° WNW 21:17:32 10° NNE
Spot 2 Rocket 3.5 21:09:33 25° SSE 21:12:37 84° WSW 21:17:44 10° NNW
Cosmos 1408 Rocket 3.7 21:12:50 10° N 21:17:06 54° ENE 21:18:23 39° SE
Cosmos 2266 Rocket 4.4 21:11:16 10° NNW 21:17:34 63° W 21:22:49 15° S
USA 229 DEB 4.2 21:10:57 10° NW 21:18:03 60° NE 21:23:02 23° ESE
USA 229 4.2 21:11:03 10° NW 21:18:08 60° NE 21:23:08 23° ESE
Cosmos 44 Rocket 3.7 21:16:06 26° S 21:18:26 43° ESE 21:23:20 10° NE
Meteor 1-4 Rocket 2.3 21:19:03 53° SSE 21:19:40 67° E 21:23:12 10° NNE
ARIANE 5 R/B 2.7 21:18:32 29° S 21:20:42 73° WSW 21:25:05 10° NNW
USA 245 3.9 21:23:37 28° SSW 21:25:02 43° WSW 21:27:59 10° NNW
Cosmos 468 Rocket 3.9 21:22:32 10° NNW 21:27:43 85° ENE 21:29:45 38° SSE
CZ-2C R/B 4.2 21:23:23 10° N 21:27:46 58° WNW 21:32:07 10° SSW
COSMOS 2455 2.8 21:24:04 10° SSW 21:29:58 61° ESE 21:35:55 10° NE
Cosmos 2221 2.9 21:29:48 41° ESE 21:30:12 43° E 21:34:15 10° NNE
Cosmos 841 Rocket 3.9 21:28:09 10° NNW 21:33:15 50° ENE 21:35:03 35° ESE
Cosmos 1743 Rocket 4.0 21:30:54 10° N 21:35:05 45° ENE 21:35:47 41° ESE
NOSS 3-1 (A) 4.2 21:28:52 10° NW 21:36:00 67° NE 21:41:02 26° ESE
SL-16 R/B 2.6 21:30:39 10° NW 21:36:14 58° WSW 21:38:53 30° S
SL-4 R/B 2.3 21:32:34 10° SW 21:36:58 57° SSE 21:38:43 35° E
ATLAS 2AS CENTAUR R/B 4.3 21:29:50 10° W 21:37:10 40° NNW 21:44:15 10° NE
Nadezhda 2 Rocket 4.4 21:31:42 10° N 21:38:01 85° E 21:41:00 33° SSE
Cosmos 1763 Rocket 3.4 21:37:08 10° NNW 21:42:14 78° WSW 21:43:55 42° S
CZ-4B DEB 4.3 21:45:00 81° NNW 21:45:00 81° NNW 21:48:06 10° NNW
Timation 2 Rocket 4.3 21:38:21 10° SW 21:44:52 69° NW 21:51:08 10° NNE
Timation 1 Rocket 4.2 21:39:17 10° SSW 21:45:14 81° ESE 21:51:14 10° NNE
Cosmos 1862 3.1 21:42:09 10° N 21:46:08 85° E 21:46:37 67° SSE
FALCON 9 DEB 3.5 21:46:17 10° W 21:49:41 61° N 21:50:09 54° NE
Cosmos 540 Rocket 3.4 21:47:44 10° NNW 21:52:53 75° ENE 21:54:12 50° SE
Cosmos 1500 Rocket 3.5 21:49:06 10° N 21:53:35 69° ENE 21:54:14 59° SE
SL-08 R/B 4.4 21:50:02 10° N 21:56:15 80° E 21:58:34 41° SSE
ATLAS 5 CENTAUR R/B 4.2 21:52:35 10° NW 21:56:20 22° N 22:00:33 10° ENE
NOSS 3-1 (C) 4.0 21:53:08 10° NW 22:00:27 76° SW 22:04:15 36° SSE
Cosmos 676 Rocket 4.4 21:55:27 11° SW 22:00:29 61° WNW 22:05:38 10° NNE
Meteor 2-15 4.4 21:57:22 28° SSW 22:00:46 80° WNW 22:06:52 10° N
Terra 2.0 21:59:35 46° SSW 22:00:52 68° WSW 22:05:38 10° NNW
Cosmos 1943 3.3 21:57:31 10° NNW 22:03:09 69° ENE 22:04:47 46° ESE
CZ-4C R/B 4.4 21:58:27 10° NW 22:03:40 28° N 22:09:47 10° ENE
Resurs 01 Rocket 4.3 22:02:36 10° WSW 22:04:27 12° W 22:06:20 10° WNW
SPOT 5 3.6 22:05:05 33° SW 22:06:35 44° W 22:11:13 10° NNW
USA 215 3.8 22:06:17 35° S 22:08:19 44° SW 22:14:32 10° WNW
Cosmos 1553 Rocket 3.8 22:08:29 44° S 22:10:32 78° E 22:16:40 10° NNE
TSX-5 3.9 22:11:33 55° SW 22:12:30 87° NW 22:16:22 10° NNE
H-2A R/B 3.6 22:09:23 10° N 22:13:36 73° WNW 22:14:18 58° SW
ALOS 2 4.0 22:14:51 25° ENE 22:15:18 26° ENE 22:18:57 10° N
ERS-1 Rocket 4.0 22:14:04 28° SW 22:15:55 38° W 22:20:37 10° NNW
BREEZE M DEB (TANK) 3.5 22:14:19 10° W 22:17:01 29° WSW 22:17:01 29° WSW
Cosmos 1417 Rocket 4.4 22:19:39 46° S 22:21:41 80° E 22:27:58 10° NNE
Cosmos 1606 3.2 22:22:29 52° NNE 22:22:29 52° NNE 22:25:29 10° NNE
Aureole 1 Rocket 3.3 22:22:52 60° S 22:23:48 77° ESE 22:28:19 10° NNE
Cosmos 1570 Rocket 3.9 22:21:12 10° NNW 22:26:32 90° WSW 22:27:21 65° SSE
Lacrosse 5 rocket 1.5 22:27:10 10° WNW 22:31:30 77° NNE 22:31:37 77° NE
Cosmos 2263 Rocket 2.0 22:33:26 63° SSE 22:33:58 67° ESE 22:39:32 10° NE
SeaSat 1 3.0 22:30:27 10° NE 22:34:31 44° E 22:34:31 44° E
Cosmos 921 Rocket 3.2 22:32:58 10° NNW 22:37:16 64° W 22:37:16 64° W
Meteor 2-17 Rocket 4.5 22:31:36 10° N 22:37:45 70° ENE 22:39:05 54° SE
NOSS 2-1 (C) 4.2 22:42:17 39° NNE 22:42:17 39° NNE 22:44:54 10° NE
Iridium 4 Rocket 4.2 22:41:38 39° E 22:41:47 39° E 22:46:45 10° NNE
Cosmos 2227 Rocket 4.0 22:36:54 10° WSW 22:41:53 30° NW 22:46:53 10° NNE
Cosmos 1741 Rocket 4.2 22:41:18 42° SW 22:43:00 68° WNW 22:48:17 10° NNE
Cosmos 1850 Rocket 4.4 22:44:50 39° SW 22:46:39 61° WNW 22:51:53 10° NNE
Cosmos 1844 Rocket 4.3 22:48:08 20° E 22:48:08 20° E 22:51:11 10° NE
Cosmos 1933 4.1 22:48:09 46° NE 22:48:09 46° NE 22:51:16 10° NNE
NOSS 2-1 (D) 4.2 22:48:37 40° N 22:48:37 40° N 22:51:28 10° NE
Cosmos 2297 Rocket 4.4 22:44:28 10° W 22:49:02 24° NW 22:53:38 10° NNE
Cosmos 2315 Rocket 4.1 22:48:28 53° SE 22:49:30 59° E 22:55:45 10° NNE
Cosmos 1603 3.9 22:45:12 10° NW 22:50:48 56° WSW 22:51:30 53° SW
USA 281 4.4 22:47:12 19° E 22:51:01 35° NE 22:56:51 10° NNW
Spot 4 3.7 22:52:41 84° SSE 22:52:51 90° ENE 22:57:45 10° NNW
Cosmos 1242 Rocket 4.5 22:54:37 23° NE 22:54:37 23° NE 22:56:22 10° NNE
Cosmos 44 Rocket 4.4 22:55:04 10° WSW 23:00:01 45° NW 23:05:04 10° NE
Cosmos 1805 Rocket 4.3 22:58:08 10° NNW 23:02:06 45° W 23:02:06 45° W
Cosmos 968 Rocket 4.2 23:03:16 40° E 23:03:16 40° E 23:07:34 10° NE
Sich 1 3.5 23:00:15 10° NNW 23:04:02 52° WNW 23:04:02 52° WNW
Cosmos 2208 Rocket 4.3 23:00:06 10° NNW 23:05:20 56° WSW 23:05:36 55° WSW
Meteor 1-14 Rocket 4.4 23:01:55 10° N 23:07:54 65° ENE 23:08:50 57° ESE
Cosmos 2221 4.4 23:06:36 20° W 23:07:57 23° WNW 23:11:25 10° NNW
NOSS 2-2 (D) 4.4 23:03:14 10° NW 23:08:13 68° NE 23:10:04 45° ESE
USA 229 DEB 4.2 23:02:05 10° NW 23:09:02 48° WSW 23:10:27 44° SSW
USA 229 4.2 23:02:10 10° NW 23:09:08 49° WSW 23:10:34 44° SSW
Cosmos 1437 Rocket 3.7 23:14:56 44° NNW 23:14:56 44° NNW 23:17:49 10° N
Cosmos 2074 Rocket 4.3 23:08:09 10° N 23:14:19 54° ENE 23:15:33 47° ESE
Cosmos 1470 Rocket 4.0 23:11:10 10° N 23:15:04 56° NE 23:15:04 56° NE
COSMOS 2455 4.2 23:10:40 10° WSW 23:16:15 38° NW 23:21:52 10° NNE
Cosmos 1709 Rocket 4.0 23:10:22 10° NNW 23:16:32 66° W 23:17:37 56° SW
COBE Rocket 4.1 23:16:33 56° ENE 23:16:37 56° ENE 23:21:25 10° N
SL-4 R/B 3.6 23:11:59 10° W 23:14:25 31° W 23:14:25 31° W
Cosmos 1633 Rocket 3.4 23:19:24 10° NNW 23:23:07 59° NW 23:23:07 59° NW
Cosmos 836 Rocket 4.4 23:23:50 10° NNW 23:29:11 90° WSW 23:29:17 87° SSE
Cosmos 1933 Rocket 4.1 23:27:30 10° N 23:31:16 53° NE 23:31:16 53° NE
Cosmos 1486 Rocket 4.2 23:33:18 60° E 23:33:18 60° E 23:38:14 10° NNE
Cosmos 1666 Rocket 4.4 23:29:13 10° NNW 23:33:00 44° WNW 23:33:00 44° WNW
Cosmos 1666 4.0 23:34:46 10° N 23:37:24 37° NNE 23:37:24 37° NNE
ATLAS 5 CENTAUR R/B 3.2 23:37:15 10° NW 23:42:11 42° NNE 23:46:48 15° E
Cosmos 1328 Rocket 3.9 23:44:04 64° NNW 23:44:04 64° NNW 23:47:57 10° N
Meteor 1-26 Rocket 4.4 23:49:13 58° WSW 23:50:07 66° WNW 23:55:54 10° N
ALOS 2 3.6 23:52:15 39° WNW 23:52:15 39° WNW 23:55:40 10° NNW
COSMOS 2406 4.4 23:48:23 10° NNW 23:53:38 37° NE 23:56:33 22° E
